START_TIME,STEP,MOV.,M15,t_acc.,M20,t_acc.
1979-07-26 09:00:43.240 ,0,0,0.,24.0,0.,24.0
1979-07-26 09:01:07.240 ,0,1,0.,24.0,0.,24.0
1979-07-26 09:01:31.240 ,0,0,0.,24.0,0.,24.0
1979-07-26 09:01:55.240 ,1,1,0.,24.0,0.,24.0
1979-07-26 09:02:19.240 ,1,0,0.,24.0,0.,24.0
1979-07-26 09:02:43.240 ,2,1,0.,24.0,0.,24.0
1979-07-26 09:03:07.240 ,2,0,0.,24.0,0.,24.0
1979-07-26 09:03:31.240 ,3,1,0.,24.0,0.,24.0
1979-07-26 09:03:55.240 ,3,0,0.,24.0,0.,24.0
1979-07-26 09:04:19.240 ,4,1,0.,24.0,0.,24.0
1979-07-26 09:04:43.240 ,4,0,0.,24.0,0.,24.0
1979-07-26 09:05:07.240 ,5,1,0.,24.0,0.,24.0
1979-07-26 09:05:31.240 ,5,0,0.,24.0,0.,24.0
1979-07-26 09:05:55.240 ,6,1,0.,24.0,0.,24.0
1979-07-26 09:06:19.240 ,6,0,0.,24.0,0.,24.0
1979-07-26 09:06:43.240 ,7,0,0.,24.0,0.,24.0
1979-07-26 09:07:07.240 ,7,0,0.,24.0,0.,24.0
1979-07-26 09:07:31.240 ,3,1,0.,24.0,0.,24.0
1979-07-26 09:07:55.240 ,0,1,0.,24.0,0.,24.0
1979-07-26 09:08:19.240 ,0,0,,0,,0
1979-07-26 09:08:43.240 ,0,0,0.,24.0,0.,24.0
1979-07-26 09:09:07.240 ,3,1,0.,24.0,0.,24.0
1979-07-26 09:09:31.240 ,0,1,0.,24.0,0.,24.0
1979-07-26 09:09:55.240 ,4,1,0.,24.0,0.,24.0
1979-07-26 09:10:19.240 ,7,1,0.,24.0,0.,24.0
1979-07-26 09:10:43.240 ,3,1,0.,24.0,0.,24.0
1979-07-26 09:11:07.240 ,0,1,0.,24.0,0.,24.0
1979-07-26 09:11:31.240 ,0,0,0.,24.0,0.,24.0
1979-07-26 09:11:55.240 ,7,1,0.,24.0,0.,24.0
1979-07-26 09:12:19.240 ,3,1,0.,24.0,0.,24.0
1979-07-26 09:12:43.240 ,0,1,0.,24.0,0.,24.0
1979-07-26 09:13:07.240 ,4,1,0.,24.0,0.,24.0
1979-07-26 09:13:31.240 ,7,1,0.,24.0,0.,24.0
1979-07-26 09:13:55.240 ,3,1,0.,24.0,0.,24.0
1979-07-26 09:14:19.240 ,0,1,0.,24.0,0.,24.0
1979-07-26 09:14:43.240 ,4,1,0.,24.0,0.,24.0
1979-07-26 09:15:07.240 ,7,1,0.,24.0,0.,24.0
1979-07-26 09:15:31.240 ,3,1,0.,24.0,0.,24.0
1979-07-26 09:15:55.240 ,0,1,0.,24.0,0.,24.0
1979-07-26 09:16:43.240 ,7,1,0.,24.0,0.,24.0
1979-07-26 09:17:07.240 ,3,1,0.,24.0,0.,24.0
1979-07-26 09:17:31.240 ,0,1,0.,24.0,0.,24.0
1979-07-26 09:17:55.240 ,0,0,0.,24.0,0.,24.0
1979-07-26 09:18:19.240 ,0,0,0.,24.0,0.,24.0
1979-07-26 09:18:43.240 ,5,1,0.,24.0,0.,24.0
1979-07-26 09:19:07.240 ,5,0,0.,24.0,0.,24.0
1979-07-26 09:19:31.240 ,4,1,0.,24.0,0.,24.0
1979-07-26 09:19:55.240 ,4,0,0.,24.0,0.,24.0
1979-07-26 09:20:19.240 ,3,1,0.,24.0,0.,24.0
1979-07-26 09:20:43.240 ,3,0,0.,24.0,0.,24.0
1979-07-26 09:21:07.240 ,2,1,0.,24.0,0.,24.0
1979-07-26 09:21:31.240 ,2,0,0.,24.0,0.,24.0
1979-07-26 09:21:55.240 ,1,1,0.,24.0,0.,24.0
1979-07-26 09:22:19.240 ,1,0,0.,24.0,0.,24.0
1979-07-26 09:22:43.240 ,0,1,0.,24.0,0.,24.0
1979-07-26 09:23:07.240 ,0,0,0.,24.0,0.,24.0
1979-07-26 09:23:31.240 ,0,1,0.,24.0,0.,24.0
1979-07-26 09:23:55.240 ,0,0,0.,24.0,0.,24.0
1979-07-26 09:24:19.240 ,1,1,0.,24.0,0.,24.0
1979-07-26 09:24:43.240 ,1,0,0.,24.0,0.,24.0
1979-07-26 09:25:07.240 ,2,1,0.,24.0,0.,24.0
1979-07-26 09:25:31.240 ,2,0,0.,24.0,0.,24.0
1979-07-26 09:25:55.240 ,3,1,0.,24.0,0.,24.0
1979-07-26 09:26:19.240 ,3,0,0.,24.0,0.,24.0
1979-07-26 09:26:43.240 ,4,1,0.,24.0,0.,24.0
1979-07-26 09:27:07.240 ,4,0,0.,24.0,0.,24.0
1979-07-26 09:27:31.240 ,5,1,0.,24.0,0.,24.0
1979-07-26 09:27:55.240 ,5,0,0.,24.0,0.,24.0
1979-07-26 09:28:19.240 ,6,1,0.,24.0,0.,24.0
1979-07-26 09:28:43.240 ,6,0,0.,24.0,0.,24.0
1979-07-26 09:29:07.240 ,7,1,0.,24.0,0.,24.0
1979-07-26 09:29:31.240 ,7,0,0.,24.0,0.,24.0
1979-07-26 09:29:55.240 ,7,1,0.,24.0,0.,24.0
1979-07-26 09:30:19.240 ,7,0,0.,24.0,0.,24.0
1979-07-26 09:30:43.240 ,6,1,0.,24.0,0.,24.0
1979-07-26 09:31:07.240 ,6,0,0.,24.0,0.,24.0
1979-07-26 09:31:31.240 ,5,1,0.,24.0,0.,24.0
1979-07-26 09:31:55.240 ,5,0,0.,24.0,0.,24.0
1979-07-26 09:32:19.240 ,4,1,0.,24.0,0.,24.0
1979-07-26 09:32:43.240 ,4,0,0.,24.0,0.,24.0
1979-07-26 09:33:07.240 ,3,1,0.,24.0,0.,24.0
1979-07-26 09:33:31.240 ,3,0,0.,24.0,0.,24.0
1979-07-26 09:33:55.240 ,2,1,0.,24.0,0.,24.0
1979-07-26 09:34:19.240 ,2,0,0.,24.0,0.,24.0
1979-07-26 09:34:43.240 ,1,1,0.,24.0,0.,24.0
1979-07-26 09:35:07.240 ,1,0,0.,24.0,0.,24.0
1979-07-26 09:35:31.240 ,0,1,0.,24.0,0.,24.0
1979-07-26 09:35:55.240 ,0,0,0.,24.0,0.,24.0
1979-07-26 09:36:19.240 ,0,1,0.,24.0,0.,24.0
1979-07-26 09:36:43.240 ,0,0,0.,24.0,0.,24.0
1979-07-26 09:37:07.240 ,1,1,0.,24.0,0.,24.0
1979-07-26 09:37:31.240 ,1,0,0.,24.0,0.,24.0
1979-07-26 09:37:55.240 ,2,1,0.,24.0,0.,24.0
1979-07-26 09:38:19.240 ,2,0,0.,24.0,0.,24.0
1979-07-26 09:38:43.240 ,3,1,0.,24.0,0.,24.0
1979-07-26 09:39:07.240 ,3,0,0.,24.0,0.,24.0
1979-07-26 09:39:31.240 ,4,1,0.,24.0,0.,24.0
1979-07-26 09:39:55.240 ,4,0,0.,24.0,0.,24.0
1979-07-26 09:40:19.240 ,5,1,0.,24.0,0.,24.0
1979-07-26 09:40:43.240 ,5,0,0.,24.0,0.,24.0
1979-07-26 09:41:07.240 ,6,1,0.,24.0,0.,24.0
1979-07-26 09:41:31.240 ,6,0,0.,24.0,0.,24.0
1979-07-26 09:41:55.240 ,0,0,,0,,0
1979-07-26 09:42:19.240 ,0,0,0.,24.0,0.,24.0
1979-07-26 09:42:43.240 ,7,1,0.,24.0,0.,24.0
1979-07-26 09:43:07.240 ,7,0,0.,24.0,0.,24.0
1979-07-26 09:43:31.240 ,6,1,0.,24.0,0.,24.0
1979-07-26 09:43:55.240 ,6,0,0.,24.0,0.,24.0
1979-07-26 09:44:19.240 ,5,1,0.,24.0,0.,24.0
1979-07-26 09:44:43.240 ,5,0,0.,24.0,0.,24.0
1979-07-26 09:45:07.240 ,4,1,0.,24.0,0.,24.0
1979-07-26 09:45:31.240 ,4,0,0.,24.0,0.,24.0
1979-07-26 09:45:55.240 ,3,1,0.,24.0,0.,24.0
1979-07-26 09:46:19.240 ,3,0,0.,24.0,0.,24.0
1979-07-26 09:46:43.240 ,2,1,0.,24.0,0.,24.0
1979-07-26 09:47:07.240 ,2,0,0.,24.0,0.,24.0
1979-07-26 09:47:31.240 ,1,1,0.,24.0,0.,24.0
1979-07-26 09:47:55.240 ,1,0,0.,24.0,0.,24.0
1979-07-26 09:48:19.240 ,0,1,0.,24.0,0.,24.0
1979-07-26 09:48:43.240 ,0,0,0.,24.0,0.,24.0
1979-07-26 09:49:07.240 ,0,1,0.,24.0,0.,24.0
1979-07-26 09:49:31.240 ,0,0,0.,24.0,0.,24.0
1979-07-26 09:49:55.240 ,1,1,0.,24.0,0.,24.0
1979-07-26 09:50:19.240 ,1,0,0.,24.0,0.,24.0
1979-07-26 09:50:43.240 ,2,1,0.,24.0,0.,24.0
1979-07-26 09:51:07.240 ,2,0,0.,24.0,0.,24.0
1979-07-26 09:51:31.240 ,3,1,0.,24.0,0.,24.0
1979-07-26 09:51:55.240 ,3,0,0.,24.0,0.,24.0
1979-07-26 09:52:19.240 ,4,1,0.,24.0,0.,24.0
1979-07-26 09:52:43.240 ,4,0,0.,24.0,0.,24.0
1979-07-26 09:53:07.240 ,5,1,0.,24.0,0.,24.0
1979-07-26 09:53:31.240 ,5,0,0.,24.0,0.,24.0
1979-07-26 09:53:55.240 ,6,1,0.,24.0,0.,24.0
1979-07-26 09:54:19.240 ,6,0,0.,24.0,0.,24.0
1979-07-26 09:54:43.240 ,7,0,0.,24.0,0.,24.0
1979-07-26 09:55:07.240 ,7,0,0.,24.0,0.,24.0
1979-07-26 09:55:31.240 ,3,1,0.,24.0,0.,24.0
1979-07-26 09:55:55.240 ,0,1,0.,24.0,0.,24.0
1979-07-26 09:56:19.240 ,4,1,0.,24.0,0.,24.0
1979-07-26 09:56:43.240 ,7,1,0.,24.0,0.,24.0
1979-07-26 09:57:07.240 ,3,1,0.,24.0,0.,24.0
1979-07-26 09:57:31.240 ,0,1,0.,24.0,0.,24.0
1979-07-26 09:57:55.240 ,4,1,0.,24.0,0.,24.0
1979-07-26 09:58:19.240 ,7,1,0.,24.0,0.,24.0
1979-07-26 09:58:43.240 ,3,1,0.,24.0,0.,24.0
1979-07-26 09:59:07.240 ,0,1,0.,24.0,0.,24.0
1979-07-26 09:59:31.240 ,4,1,0.,24.0,0.,24.0
1979-07-26 09:59:55.240 ,7,1,0.,24.0,0.,24.0
1979-07-26 10:00:19.240 ,3,1,0.,24.0,0.,24.0
1979-07-26 10:00:43.240 ,0,1,0.,24.0,0.,24.0
1979-07-26 10:01:07.240 ,4,1,0.,24.0,0.,24.0
1979-07-26 10:01:31.240 ,7,1,0.,24.0,0.,24.0
1979-07-26 10:01:55.240 ,3,1,0.,24.0,0.,24.0
1979-07-26 10:02:19.240 ,0,1,0.,24.0,0.,24.0
1979-07-26 10:02:43.240 ,4,1,0.,24.0,0.,24.0
1979-07-26 10:03:07.240 ,0,0,,0,,0
1979-07-26 10:04:06.640 ,0,0,0.,24.0,0.,24.0
1979-07-26 10:04:19.240 ,4,1,0.,24.0,0.,24.0
1979-07-26 10:04:43.240 ,7,1,0.,24.0,0.,24.0
1979-07-26 10:05:07.240 ,3,1,0.,24.0,0.,24.0
1979-07-26 10:05:31.240 ,0,1,0.,24.0,0.,24.0
1979-07-26 10:05:55.240 ,0,0,0.,24.0,0.,24.0
1979-07-26 10:06:19.240 ,0,0,0.,24.0,0.,24.0
1979-07-26 10:06:43.240 ,5,1,0.,24.0,0.,24.0
1979-07-26 10:07:07.240 ,5,0,0.,24.0,0.,24.0
1979-07-26 10:07:31.240 ,4,1,0.,24.0,0.,24.0
1979-07-26 10:07:55.240 ,4,0,0.,24.0,0.,24.0
1979-07-26 10:08:19.240 ,3,1,0.,24.0,0.,24.0
1979-07-26 10:08:43.240 ,3,0,0.,24.0,0.,24.0
1979-07-26 10:09:07.240 ,2,1,0.,24.0,0.,24.0
1979-07-26 10:09:31.240 ,2,0,0.,24.0,0.,24.0
1979-07-26 10:09:55.240 ,1,1,0.,24.0,0.,24.0
1979-07-26 10:10:19.240 ,1,0,0.,24.0,0.,24.0
1979-07-26 10:10:43.240 ,0,1,0.,24.0,0.,24.0
1979-07-26 10:11:07.240 ,0,0,0.,24.0,0.,24.0
1979-07-26 10:11:31.240 ,0,1,0.,24.0,0.,24.0
1979-07-26 10:11:55.240 ,0,0,0.,24.0,0.,24.0
1979-07-26 10:12:19.240 ,1,1,0.,24.0,0.,24.0
1979-07-26 10:12:43.240 ,1,0,0.,24.0,0.,24.0
1979-07-26 10:13:07.240 ,2,1,0.,24.0,0.,24.0
1979-07-26 10:13:31.240 ,2,0,0.,24.0,0.,24.0
1979-07-26 10:13:55.240 ,3,1,0.,24.0,0.,24.0
1979-07-26 10:14:19.240 ,3,0,0.,24.0,0.,24.0
1979-07-26 10:14:43.240 ,4,1,0.,24.0,0.,24.0
1979-07-26 10:15:07.240 ,4,0,0.,24.0,0.,24.0
1979-07-26 10:15:31.240 ,5,1,0.,24.0,0.,24.0
1979-07-26 10:15:55.240 ,5,0,0.,24.0,0.,24.0
1979-07-26 10:16:19.240 ,6,1,0.,24.0,0.,24.0
1979-07-26 10:16:43.240 ,6,0,0.,24.0,0.,24.0
1979-07-26 10:17:07.240 ,7,1,0.,24.0,0.,24.0
1979-07-26 10:17:31.240 ,7,0,0.,24.0,0.,24.0
1979-07-26 10:17:55.240 ,7,1,0.,24.0,0.,24.0
1979-07-26 10:18:19.240 ,7,0,0.,24.0,0.,24.0
1979-07-26 10:18:43.240 ,6,1,0.,24.0,0.,24.0
1979-07-26 10:19:07.240 ,6,0,0.,24.0,0.,24.0
1979-07-26 10:19:31.240 ,5,1,0.,24.0,0.,24.0
1979-07-26 10:19:55.240 ,5,0,0.,24.0,0.,24.0
1979-07-26 10:20:19.240 ,4,1,0.,24.0,0.,24.0
1979-07-26 10:20:43.240 ,4,0,0.,24.0,0.,24.0
1979-07-26 10:21:07.240 ,3,1,0.,24.0,0.,24.0
1979-07-26 10:21:31.240 ,3,0,0.,24.0,0.,24.0
1979-07-26 10:21:55.240 ,2,1,0.,24.0,0.,24.0
1979-07-26 10:22:19.240 ,2,0,0.,24.0,0.,24.0
1979-07-26 10:22:43.240 ,1,1,0.,24.0,0.,24.0
1979-07-26 10:23:07.240 ,1,0,0.,24.0,0.,24.0
1979-07-26 10:23:31.240 ,0,1,0.,24.0,0.,24.0
1979-07-26 10:23:55.240 ,0,0,0.,24.0,0.,24.0
1979-07-26 10:24:19.240 ,0,1,0.,24.0,0.,24.0
1979-07-26 10:24:43.240 ,0,0,0.,24.0,0.,24.0
1979-07-26 10:25:07.240 ,1,1,0.,24.0,0.,24.0
1979-07-26 10:25:31.240 ,1,0,0.,24.0,0.,24.0
1979-07-26 10:25:55.240 ,2,1,0.,24.0,0.,24.0
1979-07-26 10:26:19.240 ,2,0,0.,24.0,0.,24.0
1979-07-26 10:26:43.240 ,3,1,0.,24.0,0.,24.0
1979-07-26 10:27:07.240 ,3,0,0.,24.0,0.,24.0
1979-07-26 10:27:31.240 ,4,1,0.,24.0,0.,24.0
1979-07-26 10:27:55.240 ,4,0,0.,24.0,0.,24.0
1979-07-26 10:28:19.240 ,5,1,0.,24.0,0.,24.0
1979-07-26 10:28:43.240 ,5,0,0.,24.0,0.,24.0
1979-07-26 10:29:07.240 ,6,1,0.,24.0,0.,24.0
1979-07-26 10:29:31.240 ,6,0,0.,24.0,0.,24.0
1979-07-26 10:29:55.240 ,7,1,0.,24.0,0.,24.0
1979-07-26 10:30:19.240 ,7,0,0.,24.0,0.,24.0
1979-07-26 10:30:43.240 ,7,1,0.,24.0,0.,24.0
1979-07-26 10:31:07.240 ,7,0,0.,24.0,0.,24.0
1979-07-26 10:31:31.240 ,6,1,0.,24.0,0.,24.0
1979-07-26 10:31:55.240 ,6,0,0.,24.0,0.,24.0
1979-07-26 10:32:19.240 ,5,1,0.,24.0,0.,24.0
1979-07-26 10:32:43.240 ,5,0,0.,24.0,0.,24.0
1979-07-26 10:33:07.240 ,4,1,0.,24.0,0.,24.0
1979-07-26 10:33:31.240 ,4,0,0.,24.0,0.,24.0
1979-07-26 10:33:55.240 ,3,1,0.,24.0,0.,24.0
1979-07-26 10:34:19.240 ,3,0,0.,24.0,0.,24.0
1979-07-26 10:34:43.240 ,0,0,0.,24.0,0.,24.0
1979-07-26 10:35:07.240 ,0,0,0.,24.0,0.,24.0
1979-07-26 10:35:31.240 ,1,1,0.,24.0,0.,24.0
1979-07-26 10:35:55.240 ,1,0,0.,24.0,0.,24.0
1979-07-26 10:36:19.240 ,0,1,0.,24.0,0.,24.0
1979-07-26 10:36:43.240 ,0,0,0.,24.0,0.,24.0
1979-07-26 10:37:07.240 ,0,1,0.,24.0,0.,24.0
1979-07-26 10:37:31.240 ,0,0,0.,24.0,0.,24.0
1979-07-26 10:37:55.240 ,1,1,0.,24.0,0.,24.0
1979-07-26 10:38:19.240 ,1,0,0.,24.0,0.,24.0
1979-07-26 10:38:43.240 ,2,1,0.,24.0,0.,24.0
1979-07-26 10:39:07.240 ,2,0,0.,24.0,0.,24.0
1979-07-26 10:39:31.240 ,3,1,0.,24.0,0.,24.0
1979-07-26 10:39:55.240 ,3,0,0.,24.0,0.,24.0
1979-07-26 10:40:19.240 ,4,1,0.,24.0,0.,24.0
1979-07-26 10:40:43.240 ,4,0,0.,24.0,0.,24.0
1979-07-26 10:41:07.240 ,5,1,0.,24.0,0.,24.0
1979-07-26 10:41:31.240 ,5,0,0.,24.0,0.,24.0
1979-07-26 10:41:55.240 ,6,1,0.,24.0,0.,24.0
1979-07-26 10:42:19.240 ,6,0,0.,24.0,0.,24.0
1979-07-26 10:42:43.240 ,7,0,0.,24.0,0.,24.0
1979-07-26 10:43:07.240 ,7,0,0.,24.0,0.,24.0
1979-07-26 10:43:31.240 ,3,1,0.,24.0,0.,24.0
1979-07-26 10:43:55.240 ,0,1,0.,24.0,0.,24.0
1979-07-26 10:44:19.240 ,4,1,0.,24.0,0.,24.0
1979-07-26 10:44:43.240 ,7,1,1.,24.0,0.,24.0
1979-07-26 10:45:07.240 ,3,1,0.,24.0,0.,24.0
1979-07-26 10:45:31.240 ,0,1,0.,24.0,0.,24.0
1979-07-26 10:45:55.240 ,4,1,0.,24.0,0.,24.0
1979-07-26 10:46:19.240 ,7,1,0.,24.0,0.,24.0
1979-07-26 10:46:43.240 ,3,1,0.,24.0,0.,24.0
1979-07-26 10:47:07.240 ,0,1,0.,24.0,0.,24.0
1979-07-26 10:47:31.240 ,4,1,0.,24.0,0.,24.0
1979-07-26 10:47:55.240 ,7,1,0.,24.0,0.,24.0
1979-07-26 10:48:19.240 ,3,1,0.,24.0,0.,24.0
1979-07-26 10:48:43.240 ,0,1,0.,24.0,0.,24.0
1979-07-26 10:49:07.240 ,4,1,0.,24.0,0.,24.0
1979-07-26 10:49:31.240 ,7,1,0.,24.0,0.,24.0
1979-07-26 10:49:55.240 ,3,1,0.,24.0,0.,24.0
1979-07-26 10:50:19.240 ,0,1,0.,24.0,0.,24.0
1979-07-26 10:50:43.240 ,4,1,0.,24.0,0.,24.0
1979-07-26 10:51:07.240 ,7,1,0.,24.0,0.,24.0
1979-07-26 10:51:31.240 ,3,1,0.,24.0,0.,24.0
1979-07-26 10:51:55.240 ,0,1,0.,24.0,0.,24.0
1979-07-26 10:52:19.240 ,4,1,0.,24.0,0.,24.0
1979-07-26 10:52:43.240 ,7,1,0.,24.0,0.,24.0
1979-07-26 10:53:07.240 ,3,1,0.,24.0,0.,24.0
1979-07-26 10:53:31.240 ,0,1,0.,24.0,0.,24.0
1979-07-26 10:53:55.240 ,0,0,0.,24.0,0.,24.0
1979-07-26 10:54:19.240 ,0,0,0.,24.0,0.,24.0
1979-07-26 10:54:43.240 ,5,1,0.,24.0,0.,24.0
1979-07-26 10:55:07.240 ,5,0,0.,24.0,0.,24.0
1979-07-26 10:55:31.240 ,4,1,0.,24.0,0.,24.0
1979-07-26 10:55:55.240 ,4,0,0.,24.0,0.,24.0
1979-07-26 10:56:19.240 ,3,1,0.,24.0,0.,24.0
1979-07-26 10:56:43.240 ,3,0,0.,24.0,0.,24.0
1979-07-26 10:57:07.240 ,2,1,0.,24.0,0.,24.0
1979-07-26 10:57:31.240 ,2,0,0.,24.0,0.,24.0
1979-07-26 10:57:55.240 ,1,1,0.,24.0,0.,24.0
1979-07-26 10:58:19.240 ,1,0,0.,24.0,0.,24.0
1979-07-26 10:58:43.240 ,0,1,0.,24.0,0.,24.0
1979-07-26 10:59:07.240 ,0,0,0.,24.0,0.,24.0
1979-07-26 10:59:31.240 ,0,1,0.,24.0,0.,24.0
1979-07-26 10:59:55.240 ,0,0,0.,24.0,0.,24.0
1979-07-26 11:00:19.240 ,1,1,0.,24.0,0.,24.0
1979-07-26 11:00:43.240 ,1,0,0.,24.0,0.,24.0
1979-07-26 11:01:07.240 ,2,1,0.,24.0,0.,24.0
1979-07-26 11:01:31.240 ,2,0,0.,24.0,0.,24.0
1979-07-26 11:01:55.240 ,3,1,0.,24.0,0.,24.0
1979-07-26 11:02:19.240 ,3,0,0.,24.0,0.,24.0
1979-07-26 11:02:43.240 ,4,1,0.,24.0,0.,24.0
1979-07-26 11:03:07.240 ,4,0,0.,24.0,0.,24.0
1979-07-26 11:03:31.240 ,5,1,0.,24.0,0.,24.0
1979-07-26 11:03:55.240 ,5,0,0.,24.0,0.,24.0
1979-07-26 11:04:19.240 ,6,1,0.,24.0,0.,24.0
1979-07-26 11:04:43.240 ,6,0,0.,24.0,0.,24.0
1979-07-26 11:05:07.240 ,7,1,0.,24.0,0.,24.0
1979-07-26 11:05:31.240 ,7,0,0.,24.0,0.,24.0
1979-07-26 11:05:55.240 ,7,1,0.,24.0,0.,24.0
1979-07-26 11:06:19.240 ,7,0,0.,24.0,0.,24.0
1979-07-26 11:06:43.240 ,6,1,0.,24.0,0.,24.0
1979-07-26 11:07:07.240 ,6,0,0.,24.0,0.,24.0
1979-07-26 11:07:31.240 ,5,1,0.,24.0,0.,24.0
1979-07-26 11:07:55.240 ,5,0,0.,24.0,0.,24.0
1979-07-26 11:08:19.230 ,4,1,0.,24.0,0.,24.0
1979-07-26 11:08:43.230 ,4,0,0.,24.0,0.,24.0
1979-07-26 11:09:07.240 ,3,1,0.,24.0,0.,24.0
1979-07-26 11:09:31.240 ,3,0,0.,24.0,0.,24.0
1979-07-26 11:09:55.240 ,2,1,0.,24.0,0.,24.0
1979-07-26 11:10:19.240 ,2,0,0.,24.0,0.,24.0
1979-07-26 11:10:43.240 ,1,1,0.,24.0,0.,24.0
1979-07-26 11:11:07.240 ,1,0,0.,24.0,0.,24.0
1979-07-26 11:11:31.240 ,0,1,0.,24.0,0.,24.0
1979-07-26 11:11:55.240 ,0,0,0.,24.0,0.,24.0
1979-07-26 11:12:19.240 ,0,1,0.,24.0,0.,24.0
1979-07-26 11:12:43.240 ,0,0,0.,24.0,0.,24.0
1979-07-26 11:13:07.240 ,1,1,0.,24.0,0.,24.0
1979-07-26 11:13:31.240 ,1,0,0.,24.0,0.,24.0
1979-07-26 11:13:55.240 ,2,1,0.,24.0,0.,24.0
1979-07-26 11:14:19.240 ,2,0,0.,24.0,0.,24.0
1979-07-26 11:14:43.240 ,3,1,0.,24.0,0.,24.0
1979-07-26 11:15:07.240 ,3,0,0.,24.0,0.,24.0
1979-07-26 11:15:31.240 ,4,1,0.,24.0,0.,24.0
1979-07-26 11:15:55.240 ,4,0,0.,24.0,0.,24.0
1979-07-26 11:16:19.240 ,5,1,0.,24.0,0.,24.0
1979-07-26 11:16:43.240 ,5,0,0.,24.0,0.,24.0
1979-07-26 11:17:07.230 ,6,1,0.,24.0,0.,24.0
1979-07-26 11:17:31.230 ,6,0,0.,24.0,0.,24.0
1979-07-26 11:17:55.230 ,7,1,0.,24.0,0.,24.0
1979-07-26 11:18:19.230 ,7,0,0.,24.0,0.,24.0
1979-07-26 11:18:43.230 ,7,1,0.,24.0,0.,24.0
1979-07-26 11:19:07.230 ,7,0,0.,24.0,0.,24.0
1979-07-26 11:19:31.230 ,6,1,0.,24.0,0.,24.0
1979-07-26 11:19:55.230 ,6,0,0.,24.0,0.,24.0
1979-07-26 11:20:19.230 ,5,1,0.,24.0,0.,24.0
1979-07-26 11:20:43.230 ,5,0,0.,24.0,0.,24.0
1979-07-26 11:21:07.230 ,4,1,0.,24.0,0.,24.0
1979-07-26 11:21:31.230 ,4,0,0.,24.0,0.,24.0
1979-07-26 11:21:55.230 ,3,1,0.,24.0,0.,24.0
1979-07-26 11:22:19.230 ,3,0,0.,24.0,0.,24.0
1979-07-26 11:22:43.230 ,2,1,0.,24.0,0.,24.0
1979-07-26 11:23:07.230 ,2,0,0.,24.0,0.,24.0
1979-07-26 11:23:31.230 ,1,1,0.,24.0,0.,24.0
1979-07-26 11:23:55.230 ,1,0,0.,24.0,0.,24.0
1979-07-26 11:24:19.230 ,0,1,0.,24.0,0.,24.0
1979-07-26 11:24:43.230 ,0,0,0.,24.0,0.,24.0
1979-07-26 11:25:07.230 ,0,1,0.,24.0,0.,24.0
1979-07-26 11:25:31.230 ,0,0,0.,24.0,0.,24.0
1979-07-26 11:25:55.230 ,1,1,0.,24.0,0.,24.0
1979-07-26 11:26:19.230 ,1,0,0.,24.0,0.,24.0
1979-07-26 11:26:43.230 ,2,1,0.,24.0,0.,24.0
1979-07-26 11:27:07.230 ,2,0,0.,24.0,0.,24.0
1979-07-26 11:27:31.230 ,3,1,0.,24.0,0.,24.0
1979-07-26 11:27:55.230 ,3,0,0.,24.0,0.,24.0
1979-07-26 11:28:19.230 ,4,1,0.,24.0,0.,24.0
1979-07-26 11:28:43.230 ,4,0,0.,24.0,0.,24.0
1979-07-26 11:29:08.430 ,5,1,0.,24.0,0.,24.0
1979-07-26 11:29:31.230 ,5,0,0.,24.0,0.,24.0
1979-07-26 11:29:55.230 ,6,1,0.,24.0,0.,24.0
1979-07-26 11:30:19.230 ,6,0,0.,24.0,0.,24.0
1979-07-26 11:30:43.230 ,7,0,0.,24.0,0.,24.0
1979-07-26 11:31:07.230 ,7,0,0.,24.0,0.,24.0
1979-07-26 11:31:31.230 ,3,1,0.,24.0,0.,24.0
1979-07-26 11:31:55.230 ,0,1,0.,24.0,0.,24.0
1979-07-26 11:32:19.230 ,4,1,0.,24.0,0.,24.0
1979-07-26 11:32:43.230 ,7,1,0.,24.0,0.,24.0
1979-07-26 11:33:07.230 ,0,0,,0,,0
1979-07-26 11:33:31.230 ,0,0,0.,24.0,0.,24.0
1979-07-26 11:33:55.230 ,4,1,0.,24.0,0.,24.0
1979-07-26 11:34:19.230 ,7,1,0.,24.0,0.,24.0
1979-07-26 11:34:43.230 ,3,1,0.,24.0,0.,24.0
1979-07-26 11:35:07.230 ,0,1,0.,24.0,0.,24.0
1979-07-26 11:35:31.230 ,4,1,0.,24.0,0.,24.0
1979-07-26 11:35:55.230 ,7,1,0.,24.0,0.,24.0
1979-07-26 11:36:19.230 ,3,1,0.,24.0,0.,24.0
1979-07-26 11:36:43.230 ,0,1,0.,24.0,0.,24.0
1979-07-26 11:37:07.230 ,4,1,0.,24.0,0.,24.0
1979-07-26 11:37:31.230 ,7,1,0.,24.0,0.,24.0
1979-07-26 11:37:55.230 ,3,1,0.,24.0,0.,24.0
1979-07-26 11:38:19.230 ,0,1,0.,24.0,0.,24.0
1979-07-26 11:38:43.230 ,4,1,0.,24.0,0.,24.0
1979-07-26 11:39:07.230 ,7,1,0.,24.0,0.,24.0
1979-07-26 11:39:31.230 ,3,1,0.,24.0,0.,24.0
1979-07-26 11:39:55.230 ,0,1,0.,24.0,0.,24.0
1979-07-26 11:40:19.230 ,4,1,0.,24.0,0.,24.0
1979-07-26 11:40:43.230 ,7,1,0.,24.0,0.,24.0
1979-07-26 11:41:07.230 ,3,1,0.,24.0,0.,24.0
1979-07-26 11:41:31.230 ,0,1,0.,24.0,0.,24.0
1979-07-26 11:41:55.230 ,0,0,0.,24.0,0.,24.0
1979-07-26 11:42:19.230 ,0,0,0.,24.0,0.,24.0
1979-07-26 11:42:43.230 ,5,1,0.,24.0,0.,24.0
1979-07-26 11:43:07.230 ,5,0,0.,24.0,0.,24.0
1979-07-26 11:43:31.230 ,4,1,0.,24.0,0.,24.0
1979-07-26 11:43:55.230 ,4,0,0.,24.0,0.,24.0
1979-07-26 11:44:19.230 ,3,1,0.,24.0,0.,24.0
1979-07-26 11:44:43.230 ,3,0,0.,24.0,0.,24.0
1979-07-26 11:45:07.230 ,2,1,0.,24.0,0.,24.0
1979-07-26 11:45:31.230 ,2,0,0.,24.0,0.,24.0
1979-07-26 11:45:55.230 ,1,1,0.,24.0,0.,24.0
1979-07-26 11:46:19.230 ,1,0,0.,24.0,0.,24.0
1979-07-26 11:46:43.230 ,0,1,0.,24.0,0.,24.0
1979-07-26 11:47:07.230 ,0,0,0.,24.0,0.,24.0
1979-07-26 11:47:31.230 ,0,1,0.,24.0,0.,24.0
1979-07-26 11:47:55.230 ,0,0,0.,24.0,0.,24.0
1979-07-26 11:48:19.230 ,1,1,0.,24.0,0.,24.0
1979-07-26 11:48:43.230 ,1,0,0.,24.0,0.,24.0
1979-07-26 11:49:07.230 ,2,1,0.,24.0,0.,24.0
1979-07-26 11:49:31.230 ,2,0,0.,24.0,0.,24.0
1979-07-26 11:49:55.230 ,3,1,0.,24.0,0.,24.0
1979-07-26 11:50:19.230 ,3,0,0.,24.0,0.,24.0
1979-07-26 11:50:43.230 ,4,1,0.,24.0,0.,24.0
1979-07-26 11:51:07.230 ,4,0,0.,24.0,0.,24.0
1979-07-26 11:51:31.230 ,5,1,0.,24.0,0.,24.0
1979-07-26 11:51:55.230 ,5,0,0.,24.0,0.,24.0
1979-07-26 11:52:19.230 ,6,1,0.,24.0,0.,24.0
1979-07-26 11:52:43.230 ,6,0,0.,24.0,0.,24.0
1979-07-26 11:53:07.230 ,7,1,0.,24.0,0.,24.0
1979-07-26 11:53:31.230 ,7,0,0.,24.0,0.,24.0
1979-07-26 11:53:55.230 ,7,1,0.,24.0,0.,24.0
1979-07-26 11:54:19.230 ,7,0,0.,24.0,0.,24.0
1979-07-26 11:54:43.230 ,0,0,0.,24.0,0.,24.0
1979-07-26 11:55:07.230 ,0,0,0.,24.0,0.,24.0
1979-07-26 11:55:31.230 ,5,1,0.,24.0,0.,24.0
1979-07-26 11:55:55.230 ,5,0,0.,24.0,0.,24.0
1979-07-26 11:56:19.230 ,4,1,0.,24.0,0.,24.0
1979-07-26 11:56:43.230 ,4,0,0.,24.0,0.,24.0
1979-07-26 11:57:07.230 ,3,1,0.,24.0,0.,24.0
1979-07-26 11:57:31.230 ,3,0,0.,24.0,0.,24.0
1979-07-26 11:57:55.230 ,2,1,0.,24.0,0.,24.0
1979-07-26 11:58:19.230 ,2,0,0.,24.0,0.,24.0
1979-07-26 11:58:43.230 ,1,1,0.,24.0,0.,24.0
1979-07-26 11:59:07.230 ,1,0,0.,24.0,0.,24.0
1979-07-26 11:59:31.230 ,0,1,0.,24.0,0.,24.0
1979-07-26 11:59:55.230 ,0,0,0.,24.0,0.,24.0
1979-07-26 12:00:19.230 ,0,1,0.,24.0,0.,24.0
